This is the latest recevied weather packets stored in our database for station/object KY0TEQ-13. If no packets are shown the sender has not sent any weather packets the latest 10 day(s).
| Time | Temp. | Humidity | Pressure | Rain* | Wind** | Luminosity | Snow |
|---|---|---|---|---|---|---|---|
| 1777738741 | 12.22° C | 32% | 1309.9 hPa | 0 mm | - | 593 W/m² | - |
| 1777738436 | 11.67° C | 33% | 1309.9 hPa | 0 mm | - | 581 W/m² | - |
| 1777738135 | 12.22° C | 34% | 1310 hPa | 0 mm | - | 567 W/m² | - |
| 1777737833 | 10.56° C | 34% | 1309.9 hPa | 0 mm | - | 552 W/m² | - |
| 1777737531 | 11.67° C | 32% | 1309.9 hPa | 0 mm | - | 540 W/m² | - |
| 1777737229 | 11.67° C | 33% | 1309.9 hPa | 0 mm | - | 527 W/m² | - |
| 1777736925 | 11.67° C | 30% | 1309.7 hPa | 0 mm | - | 511 W/m² | - |
| 1777736316 | 10.56° C | 39% | 1309.6 hPa | 0 mm | - | 484 W/m² | - |
| 1777736013 | 10.56° C | 38% | 1309.7 hPa | 0 mm | - | 469 W/m² | - |
| 1777735711 | 11.11° C | 40% | 1309.7 hPa | 0 mm | - | 452 W/m² | - |
| 1777735408 | 10.56° C | 39% | 1309.6 hPa | 0 mm | - | 436 W/m² | - |
| 1777735106 | 11.11° C | 36% | 1309.6 hPa | 0 mm | - | 417 W/m² | - |
| 1777734802 | 10.56° C | 36% | 1310 hPa | 0 mm | - | 403 W/m² | - |
| 1777734500 | 10° C | 39% | 1309.6 hPa | 0 mm | - | 381 W/m² | - |
| 1777734196 | 10.56° C | 39% | 1309.9 hPa | 0 mm | - | 364 W/m² | - |
| 1777733892 | 10° C | 40% | 1309.7 hPa | 0 mm | - | 342 W/m² | - |
| 1777733589 | 10° C | 41% | 1309.9 hPa | 0 mm | - | 311 W/m² | - |
| 1777733286 | 10° C | 42% | 1309.9 hPa | 0 mm | - | 305 W/m² | - |
| 1777732983 | 10° C | 43% | 1309.7 hPa | 0 mm | - | 286 W/m² | - |
| 1777732678 | 9.44° C | 44% | 1309.9 hPa | 0 mm | - | 267 W/m² | - |
| 1777732376 | 8.89° C | 45% | 1309.7 hPa | 0 mm | - | 239 W/m² | - |
| 1777732074 | 8.89° C | 44% | 1309.6 hPa | 0 mm | - | 234 W/m² | - |
| 1777731770 | 8.33° C | 47% | 1309.6 hPa | 0 mm | - | 218 W/m² | - |
| 1777731467 | 7.78° C | 47% | 1309.5 hPa | 0 mm | - | 203 W/m² | - |
| 1777731165 | 7.78° C | 48% | 1309.9 hPa | 0 mm | - | 191 W/m² | - |
* Rain latest hour (hover to see other rain measurements)
** Current wind speed in m/s (hover to see current wind gust speed)